This is the latest recevied weather packets stored in our database for station/object N0MR. If no packets are shown the sender has not sent any weather packets the latest 10 day(s).
| Time | Temp. | Humidity | Pressure | Rain* | Wind** | Luminosity | Snow |
|---|---|---|---|---|---|---|---|
| 1788520414 | 14.44° C | 97% | 1010.9 hPa | 0 mm | - | - | - |
| 1788519816 | 14.44° C | 97% | 1010.9 hPa | 0 mm | - | - | - |
| 1788519224 | 14.44° C | 97% | 1011 hPa | 0 mm | - | - | - |
| 1788518614 | 14.44° C | 97% | 1011 hPa | 0 mm | - | - | - |
| 1788518014 | 13.89° C | 97% | 1010.9 hPa | 0 mm | - | - | - |
| 1788517413 | 13.89° C | 97% | 1010.9 hPa | 0 mm | - | - | - |
| 1788516814 | 14.44° C | 97% | 1010.9 hPa | 0 mm | - | - | - |
| 1788516218 | 14.44° C | 97% | 1010.9 hPa | 0 mm | - | - | - |
| 1788515622 | 13.89° C | 97% | 1010.7 hPa | 0 mm | - | - | - |
| 1788515013 | 13.89° C | 97% | 1010.8 hPa | 0 mm | - | - | - |
| 1788514417 | 13.89° C | 97% | 1010.8 hPa | 0 mm | - | - | - |
| 1788513813 | 13.89° C | 97% | 1011.1 hPa | 0 mm | - | - | - |
| 1788513216 | 13.89° C | 97% | 1011.1 hPa | 0 mm | - | - | - |
| 1788512613 | 13.89° C | 96% | 1010.8 hPa | 0 mm | - | - | - |
| 1788512014 | 13.89° C | 96% | 1010.8 hPa | 0 mm | - | - | - |
| 1788511424 | 13.89° C | 96% | 1011 hPa | 12.45 mm | - | - | - |
| 1788510816 | 13.89° C | 96% | 1011 hPa | 12.45 mm | - | - | - |
| 1788510215 | 14.44° C | 96% | 1011.2 hPa | 12.7 mm | - | - | - |
| 1788509617 | 14.44° C | 96% | 1011.2 hPa | 12.7 mm | - | - | - |
| 1788509017 | 14.44° C | 96% | 1011.3 hPa | 12.95 mm | - | - | - |
| 1788507818 | 14.44° C | 97% | 1011.7 hPa | 1.02 mm | - | - | - |
| 1788507217 | 14.44° C | 97% | 1011.7 hPa | 1.02 mm | - | - | - |
| 1788506016 | 13.89° C | 96% | 1012 hPa | 0.76 mm | - | - | - |
| 1788505414 | 13.89° C | 96% | 1011.3 hPa | 0.51 mm | - | - | - |
| 1788504814 | 13.89° C | 96% | 1011.3 hPa | 0.51 mm | - | - | - |
* Rain latest hour (hover to see other rain measurements)
** Current wind speed in m/s (hover to see current wind gust speed)